Satellite: NO-44
Catalog number: 26931
Epoch time:      10042.76418237
Element set:     384
Inclination:      067.0513 deg
RA of node:       167.1151 deg
Eccentricity:    0.0006642
Arg of perigee:   263.6292 deg
Mean anomaly:     096.4048 deg
Mean motion:   14.29583401 rev/day
Decay rate:       1.79e-06 rev/day^2
Epoch rev:           43682
Checksum:              299

Satellite: SO-50
Catalog number: 27607
Epoch time:      10042.41776050
Element set:     100
Inclination:      064.5580 deg
RA of node:       018.5134 deg
Eccentricity:    0.0039245
Arg of perigee:   134.4617 deg
Mean anomaly:     225.9701 deg
Mean motion:   14.71497016 rev/day
Decay rate:        3.6e-07 rev/day^2
Epoch rev:           38387
Checksum:              279

Satellite: CO-55
Catalog number: 27844
Epoch time:      10041.60711627
Element set:    0778
Inclination:      098.7118 deg
RA of node:       052.3872 deg
Eccentricity:    0.0009788
Arg of perigee:   172.3104 deg
Mean anomaly:     187.8221 deg
Mean motion:   14.20682781 rev/day
Decay rate:        3.1e-07 rev/day^2
Epoch rev:           34311
Checksum:              299

Satellite: CO-57
Catalog number: 27848
Epoch time:      10042.67492236
Element set:     728
Inclination:      098.7175 deg
RA of node:       052.5163 deg
Eccentricity:    0.0009812
Arg of perigee:   171.6300 deg
Mean anomaly:     188.5033 deg
Mean motion:   14.20479098 rev/day
Decay rate:        4.1e-07 rev/day^2
Epoch rev:           34322
Checksum:              303

Satellite: AO-51
Catalog number: 28375
Epoch time:      10042.57907200
Element set:     601
Inclination:      098.0559 deg
RA of node:       043.2655 deg
Eccentricity:    0.0084421
Arg of perigee:   117.8930 deg
Mean anomaly:     243.0843 deg
Mean motion:   14.40668416 rev/day
Decay rate:        1.4e-07 rev/day^2
Epoch rev:           29542
Checksum:              286

Satellite: CO-56
Catalog number: 28941
Epoch time:      09297.68475575
Element set:     556
Inclination:      098.0955 deg
RA of node:       138.9518 deg
Eccentricity:    0.0011688
Arg of perigee:   319.8691 deg
Mean anomaly:     040.7485 deg
Mean motion:   16.46998778 rev/day
Decay rate:  1.4491492e-01 rev/day^2
Epoch rev:           20790
Checksum:              407

Satellite: GENESAT1
Catalog number: 29655
Epoch time:      10042.57395701
Element set:     941
Inclination:      040.0179 deg
RA of node:       116.0014 deg
Eccentricity:    0.0003811
Arg of perigee:   129.0580 deg
Mean anomaly:     231.0569 deg
Mean motion:   15.73944989 rev/day
Decay rate:     3.8912e-04 rev/day^2
Epoch rev:           18008
Checksum:              290

Satellite: CP3
Catalog number: 31129
Epoch time:      10041.78386239
Element set:    0504
Inclination:      097.9617 deg
RA of node:       088.0242 deg
Eccentricity:    0.0100801
Arg of perigee:   265.7941 deg
Mean anomaly:     093.1735 deg
Mean motion:   14.52207785 rev/day
Decay rate:       1.51e-06 rev/day^2
Epoch rev:           14951
Checksum:              292

Satellite: CO-65
Catalog number: 32785
Epoch time:      10042.75291821
Element set:     602
Inclination:      097.9128 deg
RA of node:       109.3305 deg
Eccentricity:    0.0014443
Arg of perigee:   336.9153 deg
Mean anomaly:     023.1424 deg
Mean motion:   14.81582463 rev/day
Decay rate:       5.30e-06 rev/day^2
Epoch rev:            9691
Checksum:              290

Satellite: KKS-1
Catalog number: 33493
Epoch time:      10042.78454359
Element set:     201
Inclination:      098.0702 deg
RA of node:       161.3321 deg
Eccentricity:    0.0019966
Arg of perigee:   183.2906 deg
Mean anomaly:     176.8195 deg
Mean motion:   14.80845188 rev/day
Decay rate:       4.49e-06 rev/day^2
Epoch rev:            5692
Checksum:              314

Satellite: SOHLA-1
Catalog number: 33496
Epoch time:      10041.91832703
Element set:    0025
Inclination:      098.0469 deg
RA of node:       152.7172 deg
Eccentricity:    0.0005640
Arg of perigee:   240.3061 deg
Mean anomaly:     119.7560 deg
Mean motion:   14.69467300 rev/day
Decay rate:       -5.2e-07 rev/day^2
Epoch rev:           05633
Checksum:              269

/EX
SB KEPS @ AMSAT  $ORB10042.W
Orbital Elements  10042.WEATHER

HR AMSAT ORBITAL ELEMENTS FOR WEATHER SATELLITES
FROM WA5QGD FORT WORTH,TX February 11, 2010
Send Subscribe/unsubscribe to KEPS at http://www.amsat.org/mailman/listinfo/kep
BID: ORB10042.W
TO ALL RADIO AMATEURS BT

Satellite: NOAA-10
Catalog number: 16969
Epoch time:      10041.62852476
Element set:    0951
Inclination:      098.6723 deg
RA of node:       071.7048 deg
Eccentricity:    0.0011802
Arg of perigee:   217.9014 deg
Mean anomaly:     142.1355 deg
Mean motion:   14.27405348 rev/day
Decay rate:      -1.00e-06 rev/day^2
Epoch rev:           21752
Checksum:              279

Satellite: NOAA-11
Catalog number: 19531
Epoch time:      10041.30709999
Element set:    0966
Inclination:      098.7716 deg
RA of node:       132.4875 deg
Eccentricity:    0.0011761
Arg of perigee:   146.5157 deg
Mean anomaly:     213.6766 deg
Mean motion:   14.14914275 rev/day
Decay rate:       1.04e-06 rev/day^2
Epoch rev:           10319
Checksum:              305

